Simultaneous Nadir Overpasses (SNOs) Predictions

Prediction of SNOs over PacNW region [( 10.00, 139.50) to ( 22.70, 165.60)] between AQUA and NPP Satellites:

Table of predicted SNOs over PacNW region for the next 30.0 days since TLE Epoch: 9/30/2016
Index Date (AQUA) Time (AQUA) AQUA Lat,Lon Date (NPP) Time (NPP) NPP Lat,Lon Distance(km) Time Diff (sec)
1 10/04/2016 15:58:53 22.60, 147.47 10/04/2016 16:02:21 23.22, 144.58 304.10 208
2 10/07/2016 02:41:51 22.70, 159.87 10/07/2016 02:38:21 26.94, 157.39 534.41 210
3 10/12/2016 15:09:26 22.60, 159.83 10/12/2016 15:11:39 23.18, 157.23 274.46 133
4 10/15/2016 03:31:16 22.67, 147.51 10/15/2016 03:27:49 22.31, 145.86 175.04 207
5 10/20/2016 15:58:51 22.59, 147.47 10/20/2016 16:02:19 23.64, 144.63 313.98 208
6 10/23/2016 02:41:46 22.68, 159.88 10/23/2016 02:38:17 26.48, 157.45 489.45 209




NCC Satellite Simultaneous Nadir Overpasses (SNOs) Prediction Service
